Regional Weather Roundup
Issued by NWS

Home | Current Version | Previous Version | Graphics & Text | Print | Product List | Glossary On
Versions: 1 2 3 4 5 6 7 8 9 10 11 12 13 14 15 16 17 18 19 20 21 22 23 24 25 26 27
000
ASUS45 KSLC 231510
RWRUT

UTAH REGIONAL WEATHER ROUNDUP
NATIONAL WEATHER SERVICE SALT LAKE CITY UT
900 AM MDT THU MAR 23 2017

UTZ001>011-023>025-231600-

NORTHERN UTAH

CITY           SKY/WX    TMP DP  RH WIND       PRES   REMARKS
BRIGHAM CITY     N/A     43  36  75 N15       29.77R
DUGWAY         LGT RAIN  40  38  92 NW17G24   29.80R WCI  32
HILL AFB       LGT RAIN  38  37  94 NW8       29.76R FOG     WCI  33
LOGAN          LGT RAIN  41  37  86 N12       29.76S
OGDEN          LGT RAIN  40  37  89 N9        29.76R WCI  34
SALT LAKE CITY LGT RAIN  40  38  93 S7        29.77R
WENDOVER       CLOUDY    43  30  61 NW18      29.85R
HEBER CITY     MIX PCPN  39  36  87 SW6       29.73R WCI  35

$$

UTZ011>015-024>027-231600-

CENTRAL/NORTHEAST UTAH

CITY           SKY/WX    TMP DP  RH WIND       PRES   REMARKS
PROVO AIRPORT  LGT RAIN  41  38  89 SW10      29.77R
MOAB/CANYONLAN CLOUDY    49  38  65 SW10      29.74R
DELTA          CLOUDY    34  34 100 W7        29.82R WCI  28
PRICE          CLOUDY    41  40  96 NE7       29.73S
ROOSEVELT      CLOUDY    43  37  81 W3        29.75F
VERNAL         LGT RAIN  44  40  85 SW6       29.73R

$$

UTZ013>016-019>022-027-231600-

SOUTHERN UTAH

CITY           SKY/WX    TMP DP  RH WIND       PRES   REMARKS
BRYCE CANYON   CLOUDY    30  27  88 W5        29.82R WCI  25
CEDAR CITY     PTSUNNY   38  36  92 SW10      29.82R WCI  31
MILFORD        CLOUDY   N/A N/A N/A E6        29.82R
ST GEORGE      CLOUDY    48  40  73 CALM      29.85R
HANKSVILLE     CLOUDY    46  36  66 CALM      29.76F
BLANDING       CLOUDY    41  33  74 S6        29.89F

$$

REGIONAL REPORTS     COLORADO/ARIZONA

CITY           SKY/WX    TMP DP  RH WIND       PRES   REMARKS
CRAIG, CO      CLOUDY    44  34  67 E5        29.76R
GRAND JUNCTION PTSUNNY   49  42  77 NW6       29.76S
RIFLE, CO      CLOUDY    57  28  33 SW17G23   29.76R
MONTROSE, CO   SUNNY     52  29  41 NE7       29.79F
CORTEZ, CO     PTSUNNY   46  37  71 W9        29.83F
COLORADO CITY    N/A     43  39  87 NW3       29.88S
PAGE, AZ       CLOUDY    47 N/A N/A SW8       29.82R
GRAND CANYON   NOT AVBL
KINGMAN, AZ    CLOUDY    46  30  53 SW15      29.89R
FLAGSTAFF, AZ  CLOUDY    31  30  96 SW9       29.87R WCI  23

$$

REGIONAL REPORTS    NEVADA/IDAHO/WYOMING

CITY           SKY/WX    TMP DP  RH WIND       PRES   REMARKS
LAS VEGAS, NV  PTSUNNY   56  29  35 CALM      29.85R
ELY, NY        LGT SNOW  32  32 100 N7        29.88R FOG     WCI  26
ELKO, NV       PTSUNNY   39  30  70 NW3       29.96R
POCATELLO, ID  CLOUDY    38  37  97 W17       29.85R WCI  28
BURLEY, ID     CLOUDY    37  32  82 W16G31    29.87R WCI  28
FORT BRIDGER,  CLOUDY    36  36 100 W8        29.74R FOG     WCI  29
EVANSTON, WY   LGT SNOW  32  29  88 NW8       29.72S FOG     WCI  25
ROCK SPRINGS,  CLOUDY    40  36  86 SE16      29.69S WCI  31
KEMMERER, WY   SNOW      32  32 100 N8        29.71S VSB 1/2 WCI  25

$$




USA.gov is the U.S. government's official web portal to all federal, state and local government web resources and services.